Location: Antichan
(42.9728°N, 0.6667°E)
Time: 10:21:43
(UTC+00:00)

Cosmos 1833 - Pass Details

Date: 15 August 2020
Orbit: 836 x 862 km, 70.9° (Epoch: 18 September)

Event Time Altitude Azimuth Distance (km) Brightness Sun altitude
Exits shadow 21:58:05 70° 209° (SSW) 890 4.1 -26.7°
Maximum altitude 21:58:45 88° 291° (WNW) 846 4.1 -26.7°
Drops below altitude 10° 22:04:26 10° 24° (NNE) 2,471 7.0 -27.3°
Sets 22:06:54 0° 25° (NNE) 3,413 7.8 -27.5°
